LIC762 LEPP-LEMI

Flight info

Callsign LIC762
Flight time 1h 4m
Altitude 33000
Route NOLSA N10 CJN L150 ALT DCT PALOS
Aircraft A319/M-SDE3FGHIRWY/LB1

Departure

Time 2026-04-14 02:04
Airport Pamplona Airport (LEPP)

Arrival

Time 2026-04-14 03:08
Airport Region of Murcia International Airport (LEMI)
Time Latitude Longitude Altitude Speed Heading
2026-04-14 01:15 42.76824 -1.64145 1492 ft 0 kts 62°
2026-04-14 01:57 42.76824 -1.64144 1492 ft 0 kts 65°
2026-04-14 01:58 42.76819 -1.64138 1481 ft 2 kts 134°
2026-04-14 01:58 42.76799 -1.64130 1488 ft 4 kts 193°
2026-04-14 01:58 42.76781 -1.64156 1487 ft 3 kts 210°
2026-04-14 01:58 42.76747 -1.64148 1492 ft 6 kts 159°
2026-04-14 01:59 42.76710 -1.64120 1486 ft 6 kts 150°
2026-04-14 01:59 42.76662 -1.64109 1492 ft 7 kts 184°
2026-04-14 01:59 42.76611 -1.64099 1492 ft 8 kts 165°
2026-04-14 01:59 42.76557 -1.64102 1487 ft 8 kts 196°
2026-04-14 02:00 42.76528 -1.64135 1483 ft 1 kts 234°
2026-04-14 02:02 42.76526 -1.64139 1485 ft 0 kts 234°
2026-04-14 02:02 42.76523 -1.64146 1488 ft 1 kts 236°
2026-04-14 02:03 42.76509 -1.64176 1497 ft 5 kts 235°
2026-04-14 02:03 42.76480 -1.64224 1496 ft 7 kts 250°
2026-04-14 02:03 42.76509 -1.64272 1491 ft 7 kts 336°
2026-04-14 02:03 42.76575 -1.64319 1491 ft 19 kts 330°
2026-04-14 02:04 42.76927 -1.64579 1478 ft 95 kts 332°
2026-04-14 02:04 42.77703 -1.65143 1482 ft 155 kts 332°
2026-04-14 02:04 42.78626 -1.65801 2132 ft 147 kts 332°
2026-04-14 02:04 42.79521 -1.66470 2839 ft 146 kts 332°
2026-04-14 02:05 42.80432 -1.67143 3339 ft 158 kts 333°
2026-04-14 02:05 42.81456 -1.67887 3660 ft 180 kts 333°
2026-04-14 02:05 42.82623 -1.68735 3970 ft 202 kts 333°
2026-04-14 02:05 42.83922 -1.69681 4415 ft 219 kts 333°
2026-04-14 02:06 42.85263 -1.70662 5384 ft 217 kts 333°
2026-04-14 02:06 42.86587 -1.71631 6384 ft 215 kts 333°
2026-04-14 02:06 42.87799 -1.72826 7228 ft 221 kts 309°
2026-04-14 02:06 42.88252 -1.74858 8043 ft 238 kts 271°
2026-04-14 02:07 42.87626 -1.77011 8843 ft 259 kts 235°
2026-04-14 02:07 42.86161 -1.78496 9664 ft 273 kts 214°
2026-04-14 02:07 42.84652 -1.80025 10402 ft 268 kts 237°
2026-04-14 02:07 42.83718 -1.82171 11173 ft 261 kts 254°
2026-04-14 02:08 42.83096 -1.84481 11964 ft 260 kts 259°
2026-04-14 02:08 42.82562 -1.86839 12753 ft 262 kts 260°
2026-04-14 02:08 42.82015 -1.89221 13568 ft 266 kts 257°
2026-04-14 02:08 42.81041 -1.91485 13932 ft 298 kts 229°
2026-04-14 02:09 42.79163 -1.92954 14118 ft 331 kts 197°
2026-04-14 02:09 42.76818 -1.93058 14290 ft 358 kts 168°
2026-04-14 02:09 42.74458 -1.91733 14469 ft 378 kts 150°
2026-04-14 02:09 42.72029 -1.90263 14950 ft 388 kts 165°
2026-04-14 02:10 42.69346 -1.89839 15551 ft 390 kts 182°
2026-04-14 02:10 42.66622 -1.89920 16229 ft 392 kts 183°
2026-04-14 02:10 42.63883 -1.90017 16902 ft 395 kts 183°
2026-04-14 02:10 42.61123 -1.90120 17558 ft 398 kts 183°
2026-04-14 02:11 42.58344 -1.90223 18202 ft 401 kts 182°
2026-04-14 02:11 42.55541 -1.90324 18783 ft 405 kts 182°
2026-04-14 02:11 42.52749 -1.90420 19308 ft 409 kts 182°
2026-04-14 02:11 42.49885 -1.90514 19831 ft 413 kts 182°
2026-04-14 02:12 42.46997 -1.90609 20360 ft 417 kts 183°
2026-04-14 02:12 42.44102 -1.90946 20861 ft 420 kts 192°
2026-04-14 02:12 42.41263 -1.91925 21313 ft 422 kts 202°
2026-04-14 02:12 42.38575 -1.93525 21802 ft 423 kts 210°
2026-04-14 02:13 42.35930 -1.95310 22325 ft 427 kts 210°
2026-04-14 02:13 42.33252 -1.97097 22810 ft 431 kts 210°
2026-04-14 02:13 42.30548 -1.98891 23289 ft 435 kts 210°
2026-04-14 02:13 42.27819 -2.00698 23771 ft 439 kts 210°
2026-04-14 02:14 42.25107 -2.02495 24155 ft 442 kts 210°
2026-04-14 02:14 42.22335 -2.04328 24535 ft 446 kts 210°
2026-04-14 02:14 42.19534 -2.06178 24911 ft 450 kts 210°
2026-04-14 02:14 42.16713 -2.08042 25295 ft 453 kts 210°
2026-04-14 02:15 42.13877 -2.09915 25678 ft 456 kts 210°
2026-04-14 02:15 42.11021 -2.11800 26042 ft 459 kts 210°
2026-04-14 02:15 42.08145 -2.13698 26403 ft 462 kts 210°
2026-04-14 02:15 42.05248 -2.15608 26773 ft 465 kts 210°
2026-04-14 02:16 42.02369 -2.17501 27114 ft 469 kts 210°
2026-04-14 02:16 41.99428 -2.19433 27465 ft 472 kts 210°
2026-04-14 02:16 41.96466 -2.21377 27802 ft 476 kts 210°
2026-04-14 02:16 41.93480 -2.23332 28145 ft 479 kts 210°
2026-04-14 02:17 41.90475 -2.25300 28494 ft 482 kts 210°
2026-04-14 02:17 41.87449 -2.27280 28820 ft 485 kts 210°
2026-04-14 02:17 41.84409 -2.29273 29105 ft 489 kts 210°
2026-04-14 02:17 41.81338 -2.31287 29326 ft 494 kts 210°
2026-04-14 02:18 41.78235 -2.33314 29599 ft 498 kts 210°
2026-04-14 02:18 41.75149 -2.35328 29882 ft 501 kts 210°
2026-04-14 02:18 41.72005 -2.37377 30192 ft 504 kts 210°
2026-04-14 02:18 41.68848 -2.39429 30452 ft 507 kts 210°
2026-04-14 02:19 41.65666 -2.41495 30684 ft 510 kts 210°
2026-04-14 02:19 41.62464 -2.43567 30913 ft 513 kts 210°
2026-04-14 02:19 41.59245 -2.45648 31125 ft 516 kts 210°
2026-04-14 02:19 41.56011 -2.47738 31394 ft 517 kts 211°
2026-04-14 02:20 41.52772 -2.49831 31714 ft 518 kts 211°
2026-04-14 02:20 41.49527 -2.51928 32037 ft 518 kts 211°
2026-04-14 02:20 41.46320 -2.53997 32333 ft 519 kts 211°
2026-04-14 02:20 41.43065 -2.56095 32642 ft 521 kts 211°
2026-04-14 02:21 41.39797 -2.58197 32926 ft 522 kts 211°
2026-04-14 02:21 41.36484 -2.60219 33154 ft 528 kts 206°
2026-04-14 02:21 41.32976 -2.61659 33212 ft 529 kts 195°
2026-04-14 02:21 41.29333 -2.62367 33208 ft 531 kts 185°
2026-04-14 02:22 41.21942 -2.62019 33210 ft 532 kts 176°
2026-04-14 02:22 41.14596 -2.61368 33210 ft 532 kts 176°
2026-04-14 02:23 41.07201 -2.60737 33210 ft 533 kts 176°
2026-04-14 02:23 40.99805 -2.60094 33205 ft 533 kts 176°
2026-04-14 02:24 40.92403 -2.59425 33199 ft 533 kts 176°
2026-04-14 02:24 40.85060 -2.58751 33195 ft 533 kts 176°
2026-04-14 02:25 40.77659 -2.58070 33192 ft 533 kts 176°
2026-04-14 02:25 40.70256 -2.57403 33189 ft 533 kts 176°
2026-04-14 02:26 40.64105 -2.56854 33187 ft 533 kts 176°
2026-04-14 02:26 40.55503 -2.56092 33182 ft 533 kts 176°
2026-04-14 02:27 40.48111 -2.55432 33176 ft 533 kts 176°
2026-04-14 02:27 40.40760 -2.54324 33168 ft 531 kts 165°
2026-04-14 02:28 40.35019 -2.51649 33166 ft 524 kts 149°
2026-04-14 02:28 40.30920 -2.48399 33165 ft 516 kts 137°
2026-04-14 02:28 40.28043 -2.45610 33165 ft 515 kts 137°
2026-04-14 02:29 40.22262 -2.40039 33158 ft 516 kts 137°
2026-04-14 02:29 40.16501 -2.34469 33168 ft 515 kts 137°
2026-04-14 02:30 40.11724 -2.29839 33171 ft 514 kts 137°
2026-04-14 02:30 40.05041 -2.23389 33207 ft 513 kts 138°
2026-04-14 02:31 40.00236 -2.18764 33202 ft 512 kts 138°
2026-04-14 02:31 39.94558 -2.13300 33199 ft 510 kts 138°
2026-04-14 02:32 39.88844 -2.07820 33186 ft 510 kts 138°
2026-04-14 02:32 39.82208 -2.01468 33170 ft 509 kts 138°
2026-04-14 02:33 39.77420 -1.96895 33173 ft 509 kts 138°
2026-04-14 02:34 39.68893 -1.88771 33176 ft 508 kts 139°
2026-04-14 02:34 39.63217 -1.83371 33153 ft 505 kts 139°
2026-04-14 02:35 39.57548 -1.77994 33142 ft 505 kts 139°
2026-04-14 02:35 39.51909 -1.72655 33137 ft 506 kts 139°
2026-04-14 02:36 39.46221 -1.67286 33137 ft 506 kts 139°
2026-04-14 02:36 39.40526 -1.61922 33141 ft 507 kts 139°
2026-04-14 02:37 39.34817 -1.56553 33147 ft 507 kts 139°
2026-04-14 02:37 39.29116 -1.51210 33171 ft 505 kts 139°
2026-04-14 02:38 39.23484 -1.45934 33187 ft 502 kts 139°
2026-04-14 02:38 39.17839 -1.40661 33186 ft 500 kts 139°
2026-04-14 02:39 39.12216 -1.35416 33174 ft 498 kts 139°
2026-04-14 02:39 39.06613 -1.30186 33169 ft 497 kts 139°
2026-04-14 02:40 39.01024 -1.24978 33160 ft 495 kts 139°
2026-04-14 02:40 38.95475 -1.19848 33145 ft 495 kts 140°
2026-04-14 02:41 38.89888 -1.14694 33134 ft 494 kts 140°
2026-04-14 02:41 38.84313 -1.09534 33163 ft 494 kts 140°
2026-04-14 02:42 38.78742 -1.04389 33141 ft 493 kts 140°
2026-04-14 02:42 38.73203 -0.99298 33125 ft 493 kts 140°
2026-04-14 02:43 38.67627 -0.94180 33121 ft 493 kts 140°
2026-04-14 02:43 38.62054 -0.89055 33114 ft 494 kts 140°
2026-04-14 02:44 38.56464 -0.83950 33104 ft 494 kts 140°
2026-04-14 02:44 38.50903 -0.78878 33097 ft 495 kts 140°
2026-04-14 02:45 38.45303 -0.73777 33124 ft 495 kts 140°
2026-04-14 02:45 38.39694 -0.68683 33114 ft 494 kts 140°
2026-04-14 02:46 38.34098 -0.63601 33115 ft 494 kts 140°
2026-04-14 02:46 38.28230 -0.59106 33101 ft 500 kts 155°
2026-04-14 02:47 38.21491 -0.56834 33066 ft 504 kts 173°
2026-04-14 02:47 38.17988 -0.56525 32123 ft 508 kts 178°
2026-04-14 02:47 38.14436 -0.56334 31340 ft 509 kts 178°
2026-04-14 02:47 38.10915 -0.56178 30670 ft 505 kts 179°
2026-04-14 02:48 38.07415 -0.56043 29948 ft 502 kts 179°
2026-04-14 02:48 38.03940 -0.55909 29247 ft 497 kts 179°
2026-04-14 02:48 38.00552 -0.55767 28600 ft 491 kts 179°
2026-04-14 02:48 37.97158 -0.55610 27949 ft 486 kts 178°
2026-04-14 02:49 37.93801 -0.55444 27305 ft 481 kts 178°
2026-04-14 02:49 37.90473 -0.55276 26671 ft 476 kts 178°
2026-04-14 02:49 37.87174 -0.55109 26056 ft 473 kts 178°
2026-04-14 02:49 37.83900 -0.54942 25442 ft 469 kts 178°
2026-04-14 02:50 37.80653 -0.54783 24852 ft 465 kts 178°
2026-04-14 02:50 37.77439 -0.54631 24276 ft 461 kts 178°
2026-04-14 02:50 37.74290 -0.54485 23728 ft 457 kts 178°
2026-04-14 02:50 37.71132 -0.54336 23130 ft 452 kts 178°
2026-04-14 02:51 37.68001 -0.54187 22615 ft 447 kts 178°
2026-04-14 02:51 37.64904 -0.54038 22089 ft 444 kts 178°
2026-04-14 02:51 37.61830 -0.53890 21575 ft 441 kts 178°
2026-04-14 02:51 37.58778 -0.53745 21108 ft 437 kts 179°
2026-04-14 02:52 37.55746 -0.53604 20635 ft 434 kts 179°
2026-04-14 02:52 37.52737 -0.53461 20146 ft 432 kts 179°
2026-04-14 02:52 37.49767 -0.53721 19657 ft 426 kts 195°
2026-04-14 02:52 37.47085 -0.55052 19088 ft 417 kts 216°
2026-04-14 02:53 37.44913 -0.57363 18610 ft 403 kts 235°
2026-04-14 02:53 37.43445 -0.60271 18112 ft 389 kts 251°
2026-04-14 02:53 37.42354 -0.63358 17633 ft 383 kts 254°
2026-04-14 02:53 37.41430 -0.66458 17187 ft 375 kts 258°
2026-04-14 02:54 37.40706 -0.69575 16748 ft 367 kts 262°
2026-04-14 02:54 37.40185 -0.72683 16329 ft 360 kts 266°
2026-04-14 02:54 37.39839 -0.75731 15911 ft 354 kts 270°
2026-04-14 02:54 37.39645 -0.78786 15487 ft 347 kts 273°
2026-04-14 02:55 37.39599 -0.81796 15086 ft 342 kts 277°
2026-04-14 02:55 37.39700 -0.84760 14686 ft 336 kts 280°
2026-04-14 02:55 37.39944 -0.87664 14285 ft 332 kts 284°
2026-04-14 02:55 37.40320 -0.90510 13882 ft 328 kts 287°
2026-04-14 02:56 37.40816 -0.93281 13457 ft 323 kts 290°
2026-04-14 02:56 37.41435 -0.95973 13053 ft 317 kts 292°
2026-04-14 02:56 37.42161 -0.98566 12666 ft 312 kts 295°
2026-04-14 02:56 37.42975 -1.01038 12273 ft 308 kts 298°
2026-04-14 02:57 37.43956 -1.03396 11875 ft 301 kts 308°
2026-04-14 02:57 37.45400 -1.05247 11484 ft 295 kts 326°
2026-04-14 02:57 37.47212 -1.06405 11037 ft 293 kts 343°
2026-04-14 02:57 37.49206 -1.06909 10591 ft 292 kts 348°
2026-04-14 02:58 37.50998 -1.07954 10425 ft 282 kts 319°
2026-04-14 02:58 37.52017 -1.09999 10241 ft 279 kts 286°
2026-04-14 02:58 37.52040 -1.12435 10181 ft 282 kts 266°
2026-04-14 02:58 37.51934 -1.14895 10089 ft 280 kts 275°
2026-04-14 02:59 37.52111 -1.17351 9726 ft 282 kts 282°
2026-04-14 02:59 37.52488 -1.19722 9358 ft 278 kts 287°
2026-04-14 02:59 37.52994 -1.22061 9000 ft 275 kts 291°
2026-04-14 02:59 37.53601 -1.24336 8651 ft 272 kts 294°
2026-04-14 03:00 37.54305 -1.26539 8259 ft 271 kts 297°
2026-04-14 03:00 37.55115 -1.28666 7865 ft 267 kts 301°
2026-04-14 03:00 37.56018 -1.30693 7523 ft 263 kts 305°
2026-04-14 03:00 37.57003 -1.32611 7181 ft 258 kts 308°
2026-04-14 03:01 37.58051 -1.34387 6854 ft 254 kts 312°
2026-04-14 03:01 37.59183 -1.36070 6525 ft 250 kts 315°
2026-04-14 03:01 37.60375 -1.37639 6191 ft 245 kts 319°
2026-04-14 03:01 37.61613 -1.39081 5900 ft 239 kts 323°
2026-04-14 03:02 37.63050 -1.39930 5634 ft 227 kts 356°
2026-04-14 03:02 37.64493 -1.39410 5356 ft 217 kts 36°
2026-04-14 03:02 37.65240 -1.37803 5136 ft 220 kts 73°
2026-04-14 03:02 37.65507 -1.35934 4883 ft 211 kts 71°
2026-04-14 03:03 37.65969 -1.34246 4627 ft 197 kts 57°
2026-04-14 03:03 37.66692 -1.32826 4403 ft 190 kts 48°
2026-04-14 03:03 37.67480 -1.31528 4186 ft 188 kts 46°
2026-04-14 03:03 37.68291 -1.30230 3975 ft 188 kts 46°
2026-04-14 03:04 37.69101 -1.28942 3745 ft 187 kts 46°
2026-04-14 03:04 37.69915 -1.27657 3527 ft 187 kts 46°
2026-04-14 03:04 37.70727 -1.26381 3302 ft 186 kts 45°
2026-04-14 03:04 37.71540 -1.25103 3117 ft 185 kts 44°
2026-04-14 03:05 37.72326 -1.23865 2867 ft 177 kts 44°
2026-04-14 03:05 37.73101 -1.22714 2610 ft 167 kts 41°
2026-04-14 03:05 37.73835 -1.21655 2384 ft 158 kts 41°
2026-04-14 03:05 37.74534 -1.20644 2171 ft 146 kts 42°
2026-04-14 03:06 37.75182 -1.19707 1973 ft 138 kts 42°
2026-04-14 03:06 37.75813 -1.18803 1780 ft 137 kts 43°
2026-04-14 03:06 37.76439 -1.17900 1531 ft 136 kts 44°
2026-04-14 03:06 37.77049 -1.16990 1302 ft 135 kts 46°
2026-04-14 03:07 37.77606 -1.16032 1140 ft 135 kts 49°
2026-04-14 03:07 37.78225 -1.15138 967 ft 135 kts 44°
2026-04-14 03:07 37.78875 -1.14320 828 ft 134 kts 42°
2026-04-14 03:07 37.79528 -1.13501 690 ft 131 kts 47°
2026-04-14 03:08 37.80121 -1.12740 644 ft 104 kts 47°
2026-04-14 03:08 37.80501 -1.12232 648 ft 55 kts 45°
2026-04-14 03:08 37.80682 -1.11997 644 ft 32 kts 46°
2026-04-14 03:08 37.80836 -1.11798 643 ft 32 kts 45°
2026-04-14 03:09 37.80982 -1.11611 646 ft 28 kts 45°
2026-04-14 03:09 37.81110 -1.11446 649 ft 22 kts 46°
2026-04-14 03:09 37.81197 -1.11331 648 ft 16 kts 44°
2026-04-14 03:09 37.81295 -1.11337 648 ft 14 kts 318°
2026-04-14 03:10 37.81343 -1.11422 650 ft 12 kts 279°
2026-04-14 03:10 37.81299 -1.11510 652 ft 13 kts 226°
2026-04-14 03:10 37.81238 -1.11591 653 ft 14 kts 226°
2026-04-14 03:10 37.81164 -1.11684 650 ft 17 kts 226°
2026-04-14 03:11 37.81076 -1.11801 650 ft 19 kts 226°
2026-04-14 03:11 37.80977 -1.11928 646 ft 22 kts 226°
2026-04-14 03:11 37.80872 -1.12064 648 ft 21 kts 226°
2026-04-14 03:11 37.80768 -1.12197 648 ft 22 kts 226°
2026-04-14 03:12 37.80665 -1.12328 651 ft 20 kts 225°
2026-04-14 03:12 37.80562 -1.12462 649 ft 22 kts 225°
2026-04-14 03:12 37.80482 -1.12564 649 ft 16 kts 226°
2026-04-14 03:12 37.80418 -1.12649 648 ft 11 kts 227°
2026-04-14 03:13 37.80414 -1.12742 649 ft 12 kts 307°
2026-04-14 03:13 37.80458 -1.12814 649 ft 9 kts 284°
2026-04-14 03:13 37.80431 -1.12884 647 ft 9 kts 225°
2026-04-14 03:13 37.80385 -1.12941 647 ft 8 kts 226°
2026-04-14 03:14 37.80368 -1.12997 647 ft 7 kts 292°
2026-04-14 03:14 37.80384 -1.13022 647 ft 2 kts 317°
2026-04-14 03:14 37.80397 -1.13038 647 ft 3 kts 315°
2026-04-14 03:14 37.80408 -1.13052 647 ft 0 kts 315°